Starlink 11207

operational
NORAD ID: 60933 Int'l Des: 2024-155 Owner: SPXS Country: US Constellation: starlink
LEOCIRCULAR

Starlink 11207について

説明を読み込み中...

リアルタイム位置

3D地球を読み込み中...

次回通過

高度履歴

Altitude vs Time

uPlot chart will show altitude changes over time

軌道要素

1 60933U 24155K 26037.54061291 -.00000984 00000-0 -32733-5 0 9990
2 60933 53.1573 134.5427 0000903 87.8543 272.2578 15.69684649 83518
Epoch: Feb 6, 2026 • Age: 12 hours

現在のステータス

高度 367.7 km
速度 7.69 km/s
衛星直下点 -25.85°S, 172.44°W
打ち上げ日 Aug 31, 2024
運用期間 1.4 years
タイプ internet

技術仕様

分類 Payload
質量 960.00 kg
乾燥質量 910.00 kg
総質量 960.00 kg
長さ 0.30 m
直径 4.10 m
スパン 29.00 m
形状 Box + pan
製造者 SPXS
バスタイプ Starlink V2MD
フェーズステータス In Orbit
所有者/国 SPXS/US

大規模コンステレーション

Loading constellations...